Flag for Slovakia Weather past 2 weeks in Košice, Slovakia

Now
23 °F

Clear.


Feels Like: 17 °F
Forecast: 21 / 34 °F
Wind: 5 mph from Northeast

Location: Kosice - Barca

Current Time: Feb 2, 2015 at 3:55:17 AM

Latest Report: Feb 2, 2015 at 3:30 AM


Visibility: 6 mi

Pressure: 29.36 "Hg

Humidity: 93%

Dew point: 21 °F

Location of KošiceLocation

Historic Weather in Košice — Graph

°F

Košice temperature yesterday

Maximum temperature yesterday: 34 °F (at 12:00 PM)
Minimum temperature yesterday: 19 °F (at 12:00 AM)
Average temperature yesterday: 27 °F

Past Weeks' High & Low Weather Summary

 TemperatureHumidityPressure
High45 °F (Jan 23, 10:30 AM)100% (Jan 18, 7:30 AM)30.21 "Hg (Jan 18, 7:30 AM)
Low19 °F (Jan 31, 11:00 PM)65% (Jan 25, 6:30 PM)28.71 "Hg (Jan 31, 2:30 AM)
Average35 °F88%29.76 "Hg
* Reported Jan 18 3:00 AM — Feb 2 3:00 AM, Košice, Weather by CustomWeather, © 2014

Note: Actual official high and low records may vary slightly from our data, if they occured in-between our weather recording intervals... More about our weather records

Advertising

Košice weather history for previous 24 hours

 ConditionsComfort  
Time TempWeatherWind HumidityBarometerVisibility
3:00 AM
Feb 2
23 °FClear.3 mph93%29.36 "Hg6 mi
2:30 AM23 °FLight fog.3 mph93%29.36 "Hg5 mi
2:00 AM25 °FLight fog.3 mph100%29.36 "Hg5 mi
1:30 AM23 °FLight fog.1 mph100%29.36 "Hg4 mi
1:00 AM23 °FClear.2 mph93%29.36 "Hg5 mi
12:30 AM23 °FClear.2 mph93%29.36 "Hg6 mi
12:00 AM23 °FClear.2 mph93%29.36 "Hg6 mi
11:30 PM
Feb 1
23 °FLight fog.1 mph93%29.36 "Hg4 mi
11:00 PM23 °FLight fog.3 mph93%29.36 "Hg4 mi
10:30 PM23 °FLight fog.1 mph93%29.36 "Hg2 mi
10:00 PM23 °FLight fog.2 mph93%29.36 "Hg3 mi
9:30 PM21 °FLight fog.2 mph100%29.36 "Hg2 mi
9:00 PM23 °FSnow. Overcast.1 mph93%29.33 "Hg3 mi
8:30 PM23 °FLight fog.1 mph93%29.33 "Hg3 mi
8:00 PM23 °FLight fog.2 mph100%29.33 "Hg5 mi
7:30 PM25 °FLight fog.6 mph93%29.33 "Hg6 mi
7:00 PM21 °FLight fog.3 mph100%29.33 "HgN/A
6:30 PM30 °FClear.2 mph93%29.30 "Hg10 mi
6:00 PM30 °FClear.3 mph86%29.30 "Hg10 mi
5:30 PM27 °FClear.2 mph93%29.30 "Hg10 mi
5:00 PM30 °FClear.2 mph93%29.30 "Hg10 mi
4:30 PM32 °FSunny.5 mph87%29.27 "Hg10 mi
4:00 PM32 °FSunny.1 mph87%29.27 "Hg10 mi
3:30 PM32 °FSunny.1 mph87%29.27 "Hg10 mi
3:00 PM32 °FSunny.No wind87%29.27 "Hg10 mi
2:30 PM32 °FSunny.2 mph80%29.27 "Hg10 mi
2:00 PM34 °FSunny.2 mph81%29.27 "Hg10 mi
1:30 PM34 °FSunny.7 mph81%29.27 "Hg10 mi
1:00 PM34 °FSunny.5 mph75%29.30 "Hg10 mi
12:30 PM34 °FSunny.5 mph75%29.30 "Hg10 mi
12:00 PM34 °FSunny.7 mph75%29.30 "Hg10 mi
11:30 AM32 °FPassing clouds.6 mph80%29.30 "HgN/A
11:00 AM32 °FSnow. Passing clouds.2 mph87%29.30 "HgN/A
10:30 AM27 °FSnow. Passing clouds.2 mph86%29.33 "Hg6 mi
10:00 AM25 °FSnow. Passing clouds.1 mph86%29.33 "Hg6 mi
9:30 AM28 °FSnow. Passing clouds.1 mph86%29.30 "Hg6 mi
9:00 AM27 °FSnow. Cloudy.2 mph86%29.30 "Hg6 mi
8:30 AM25 °FPassing clouds.8 mph93%29.30 "Hg6 mi
8:00 AM25 °FPassing clouds.3 mph86%29.30 "Hg6 mi
7:30 AM23 °FSnow. Cloudy.3 mph100%29.30 "Hg4 mi
7:00 AM23 °FSnow. Overcast.6 mph100%29.30 "Hg1 mi
6:30 AM19 °FSnow. Overcast.1 mph93%29.30 "Hg4 mi
6:00 AM23 °FIce fog.2 mph93%29.30 "Hg2 mi
5:30 AM25 °FPassing clouds.2 mph100%29.30 "Hg2 mi
5:00 AM23 °FIce fog.1 mph100%29.30 "Hg2 mi
4:30 AM28 °FPassing clouds.2 mph93%29.30 "Hg3 mi
4:00 AM28 °FPassing clouds.2 mph93%29.30 "Hg4 mi
3:30 AM27 °FPassing clouds.2 mph100%29.30 "Hg5 mi
3:00 AM27 °FPassing clouds.2 mph100%29.30 "Hg4 mi
Weather by CustomWeather, © 2014

See weather overviewHow to use our weather pages